This is the latest recevied weather packets stored in our database for station/object KC4GS-13. If no packets are shown the sender has not sent any weather packets the latest 10 day(s).
| Time | Temp. | Humidity | Pressure | Rain* | Wind** | Luminosity | Snow |
|---|---|---|---|---|---|---|---|
| 1788634039 | 35.56° C | 51% | 1012.9 hPa | 0 mm | - | 113 W/m² | - |
| 1788633738 | 35.56° C | 52% | 1012.8 hPa | 0 mm | - | 131 W/m² | - |
| 1788633432 | 35.56° C | 53% | 1013 hPa | 0 mm | - | 113 W/m² | - |
| 1788633127 | 36.11° C | 55% | 1012.9 hPa | 0 mm | - | 115 W/m² | - |
| 1788632821 | 36.67° C | 51% | 1013 hPa | 0 mm | - | 133 W/m² | - |
| 1788632521 | 37.22° C | 48% | 1013.1 hPa | 0 mm | - | 130 W/m² | - |
| 1788632216 | 37.78° C | 48% | 1013.1 hPa | 0 mm | - | 148 W/m² | - |
| 1788631909 | 37.78° C | 48% | 1013.3 hPa | 0 mm | - | 812 W/m² | - |
| 1788631604 | 37.22° C | 49% | 1013.3 hPa | 0 mm | - | 759 W/m² | - |
| 1788631300 | 36.67° C | 51% | 1013.5 hPa | 0 mm | - | 704 W/m² | - |
| 1788630998 | 35.56° C | 52% | 1013.6 hPa | 0 mm | - | 736 W/m² | - |
| 1788630694 | 35.56° C | 53% | 1013.4 hPa | 0 mm | - | 819 W/m² | - |
| 1788630390 | 35.56° C | 53% | 1013.4 hPa | 0 mm | - | 121 W/m² | - |
| 1788630085 | 35.56° C | 53% | 1013.9 hPa | 0 mm | - | 157 W/m² | - |
| 1788629781 | 35.56° C | 53% | 1014 hPa | 0 mm | - | 629 W/m² | - |
| 1788629477 | 36.11° C | 51% | 1013.8 hPa | 0 mm | - | 139 W/m² | - |
| 1788629175 | 36.11° C | 51% | 1013.9 hPa | 0 mm | - | 561 W/m² | - |
| 1788628870 | 36.67° C | 51% | 1013.9 hPa | 0 mm | - | 171 W/m² | - |
| 1788628567 | 36.11° C | 51% | 1013.7 hPa | 0 mm | - | 508 W/m² | - |
| 1788628262 | 36.11° C | 52% | 1013.8 hPa | 0 mm | - | 202 W/m² | - |
| 1788627959 | 36.11° C | 52% | 1014.2 hPa | 0 mm | - | 282 W/m² | - |
| 1788627654 | 35.56° C | 52% | 1014 hPa | 0 mm | - | 98 W/m² | - |
| 1788627349 | 35.56° C | 52% | 1014 hPa | 0 mm | - | 104 W/m² | - |
| 1788627044 | 35.56° C | 53% | 1014.3 hPa | 0 mm | - | 112 W/m² | - |
| 1788626744 | 35.56° C | 54% | 1014.5 hPa | 0 mm | - | 184 W/m² | - |
* Rain latest hour (hover to see other rain measurements)
** Current wind speed in m/s (hover to see current wind gust speed)